Weather History for Hibbing, MN

Change the Weather History Date:

Wednesday, February 19, 2014

  Actual Average Record
Temperature  
Mean Temperature 30 °F -  
Max Temperature 42 °F 26 °F 43 °F (1998)
Min Temperature 19 °F 4 °F -29 °F (1966)
Degree Days  
Heating Degree Days 34    
Moisture  
Dew Point 19 °F    
Average Humidity 63    
Maximum Humidity 85    
Minimum Humidity 35    
Precipitation  
Precipitation 0.00 in - - ()
Sea Level Pressure  
Sea Level Pressure 29.71 in    
Wind  
Wind Speed 6 mph (SW)    
Max Wind Speed 10 mph    
Max Gust Speed -    
Visibility 10 miles    
Events      
Averages and records for this station are not official NWS values.
T = Trace of Precipitation, MM = Missing Value Source: NWS Daily Summary

Daily Weather History Graph

Daily Weather History Graph

Search for Another Location

Airport:

Trip Planner

Search our weather history database for the weather conditions in past years. The results will help you decide how hot, cold, wet, or windy it might be!

Date:

Astronomy

Feb. 19, 2014 Rise Set
Actual Time 7:09 AM CST 5:41 PM CST
Civil Twilight 6:38 AM CST 6:12 PM CST
Nautical Twilight 6:02 AM CST 6:48 PM CST
Astronomical Twilight 5:27 AM CST 7:23 PM CST
Moon 10:58 PM CST (2/19) 8:55 AM CST (2/19)
Length of Visible Light 11h 34m
Length of Day
10h 31m
Waning Gibbous, 79% of the Moon is Illuminated
Feb 19
Waning Gibbous
Feb 22
Last Quarter
Mar 1
New
Mar 8
First Quarter
Mar 16
Full

Hourly Weather History & Observations

Time (CST) Temp. Windchill Dew Point Humidity Pressure Visibility Wind Dir Wind Speed Gust Speed Precip Events Conditions
12:53 AM 26.1 °F 18.4 °F 18.0 °F 71% 29.68 in 10.0 mi West 6.9 mph - N/A   Clear
1:53 AM 25.0 °F 18.1 °F 18.0 °F 75% 29.68 in 10.0 mi West 5.8 mph - N/A   Clear
2:53 AM 24.1 °F 17.0 °F 17.1 °F 75% 29.69 in 10.0 mi WSW 5.8 mph - N/A   Clear
3:53 AM 23.0 °F 14.7 °F 17.1 °F 78% 29.68 in 10.0 mi West 6.9 mph - N/A   Clear
4:53 AM 23.0 °F 15.8 °F 17.1 °F 78% 29.69 in 10.0 mi West 5.8 mph - N/A   Clear
5:53 AM 21.9 °F 14.5 °F 16.0 °F 78% 29.70 in 10.0 mi WSW 5.8 mph - N/A   Clear
6:53 AM 19.0 °F 13.9 °F 15.1 °F 85% 29.70 in 10.0 mi SW 3.5 mph - N/A   Clear
7:53 AM 19.0 °F - 15.1 °F 85% 29.72 in 10.0 mi Calm Calm - N/A   Clear
8:53 AM 25.0 °F 17.1 °F 17.1 °F 72% 29.73 in 10.0 mi West 6.9 mph - N/A   Clear
9:53 AM 28.0 °F 19.3 °F 18.0 °F 66% 29.74 in 10.0 mi NW 9.2 mph - N/A   Clear
10:53 AM 30.9 °F 24.3 °F 19.0 °F 61% 29.74 in 10.0 mi WNW 6.9 mph - N/A   Clear
11:53 AM 33.1 °F 26.9 °F 18.0 °F 54% 29.73 in 10.0 mi WSW 6.9 mph - N/A   Clear
12:53 PM 37.0 °F 31.6 °F 19.0 °F 48% 29.71 in 10.0 mi Variable 6.9 mph - N/A   Clear
1:53 PM 39.9 °F 33.4 °F 18.0 °F 41% 29.71 in 10.0 mi West 10.4 mph - N/A   Clear
2:53 PM 42.1 °F 37.1 °F 17.1 °F 37% 29.71 in 10.0 mi WNW 8.1 mph - N/A   Clear
3:53 PM 42.1 °F 38.4 °F 16.0 °F 35% 29.72 in 10.0 mi West 5.8 mph - N/A   Partly Cloudy
4:53 PM 39.9 °F 37.8 °F 18.0 °F 41% 29.71 in 10.0 mi South 3.5 mph - N/A   Clear
5:53 PM 37.0 °F 33.3 °F 19.0 °F 48% 29.73 in 10.0 mi South 4.6 mph - N/A   Clear
6:53 PM 30.9 °F 25.2 °F 19.9 °F 64% 29.74 in 10.0 mi SE 5.8 mph - N/A   Mostly Cloudy
7:53 PM 30.9 °F 25.2 °F 19.9 °F 64% 29.74 in 10.0 mi SE 5.8 mph - N/A   Overcast
8:53 PM 34.0 °F 26.0 °F 21.9 °F 61% 29.71 in 10.0 mi SE 10.4 mph - N/A   Overcast
9:53 PM 33.1 °F 27.7 °F 23.0 °F 66% 29.72 in 10.0 mi SE 5.8 mph - N/A   Overcast
10:53 PM 34.0 °F 27.2 °F 24.1 °F 67% 29.70 in 10.0 mi SE 8.1 mph - N/A   Overcast
11:53 PM 34.0 °F 27.2 °F 24.1 °F 67% 29.70 in 10.0 mi SE 8.1 mph - N/A   Overcast